Faribault, MN

7:58 AM CDT on August 26, 2016 (GMT -0500)
Faribault Municipal

Weather History for KFBL - March, 2014

Change the Weather History Date:

Friday, March 21, 2014

  Actual Average Record
Temperature  
Mean Temperature 38 °F -  
Max Temperature 48 °F 40 °F 64 °F (1953)
Min Temperature 28 °F 23 °F -7 °F (1965)
Degree Days  
Heating Degree Days 27    
Moisture  
Dew Point 26 °F    
Average Humidity 61    
Maximum Humidity 69    
Minimum Humidity 52    
Precipitation  
Precipitation 0.00 in - - ()
Sea Level Pressure  
Sea Level Pressure 29.86 in    
Wind  
Wind Speed 11 mph (SW)    
Max Wind Speed 26 mph    
Max Gust Speed 36 mph    
Visibility 10 miles    
Events      
Averages and records for this station are not official NWS values.
T = Trace of Precipitation, MM = Missing Value Source: NWS Daily Summary

Daily Weather History Graph

Daily Weather History Graph

Search for Another Location

Airport or City:

Trip Planner

Search our weather history database for the weather conditions in past years. The results will help you decide how hot, cold, wet, or windy it might be!

Date:

Astronomy

Mar. 21, 2014 Rise Set
Actual Time 7:14 AM CDT 7:26 PM CDT
Civil Twilight 6:45 AM CDT 7:55 PM CDT
Nautical Twilight 6:11 AM CDT 8:30 PM CDT
Astronomical Twilight 5:36 AM CDT 9:05 PM CDT
Moon No Moon Rise 9:56 AM CDT (3/21)
Length of Visible Light 13h 10m
Length of Day
12h 12m
Waning Gibbous, 75% of the Moon is Illuminated
Mar 21
Waning Gibbous
Mar 23
Last Quarter
Mar 30
New
Apr 7
First Quarter
Apr 15
Full

Hourly Weather History & Observations

Time (CDT) Temp. Windchill Dew Point Humidity Pressure Visibility Wind Dir Wind Speed Gust Speed Precip Events Conditions
12:14 AM 35.6 °F 29.9 °F 24.8 °F 65% 29.89 in 10.0 mi SE 6.9 mph - N/A   Clear
12:33 AM 35.6 °F 29.2 °F 24.8 °F 65% 29.88 in 10.0 mi SE 8.1 mph - N/A   Clear
12:54 AM 35.6 °F 29.9 °F 24.8 °F 65% 29.87 in 10.0 mi SE 6.9 mph - N/A   Clear
1:14 AM 35.6 °F 30.7 °F 24.8 °F 65% 29.86 in 10.0 mi SE 5.8 mph - N/A   Clear
1:33 AM 35.6 °F 30.7 °F 24.8 °F 65% 29.86 in 10.0 mi SE 5.8 mph - N/A   Clear
1:54 AM 35.6 °F 29.9 °F 24.8 °F 65% 29.85 in 10.0 mi SE 6.9 mph - N/A   Clear
2:11 AM 35.6 °F 29.2 °F 24.8 °F 65% 29.85 in 10.0 mi SE 8.1 mph - N/A   Clear
2:34 AM 37.4 °F 30.3 °F 23.0 °F 56% 29.83 in 10.0 mi SE 10.4 mph - N/A   Clear
2:54 AM 37.4 °F 29.8 °F 21.2 °F 52% 29.82 in 10.0 mi SE 11.5 mph 16.1 mph N/A   Clear
3:14 AM 37.4 °F 30.8 °F 21.2 °F 52% 29.82 in 10.0 mi SE 9.2 mph - N/A   Clear
3:34 AM 37.4 °F 32.1 °F 21.2 °F 52% 29.83 in 10.0 mi SSE 6.9 mph - N/A   Clear
3:54 AM 37.4 °F 32.1 °F 21.2 °F 52% 29.83 in 10.0 mi SE 6.9 mph - N/A   Scattered Clouds
4:14 AM 37.4 °F 30.8 °F 21.2 °F 52% 29.82 in 10.0 mi SE 9.2 mph - N/A   Mostly Cloudy
4:34 AM 37.4 °F 32.1 °F 23.0 °F 56% 29.83 in 10.0 mi SE 6.9 mph - N/A   Mostly Cloudy
4:53 AM 37.4 °F 32.1 °F 23.0 °F 56% 29.83 in 10.0 mi SE 6.9 mph - N/A   Overcast
5:14 AM 37.4 °F 33.8 °F 23.0 °F 56% 29.84 in 10.0 mi South 4.6 mph - N/A   Overcast
5:34 AM 37.4 °F 32.1 °F 24.8 °F 60% 29.83 in 10.0 mi SE 6.9 mph - N/A   Overcast
5:54 AM 37.4 °F 31.4 °F 24.8 °F 60% 29.82 in 10.0 mi SE 8.1 mph - N/A   Overcast
6:14 AM 37.4 °F 30.8 °F 24.8 °F 60% 29.81 in 10.0 mi SSE 9.2 mph - N/A   Overcast
6:34 AM 37.4 °F 28.9 °F 24.8 °F 60% 29.78 in 10.0 mi ESE 13.8 mph 18.4 mph N/A   Mostly Cloudy
6:54 AM 37.4 °F 29.8 °F 24.8 °F 60% 29.76 in 10.0 mi ESE 11.5 mph - N/A   Mostly Cloudy
7:14 AM 39.2 °F 32.0 °F 24.8 °F 56% 29.75 in 10.0 mi SE 11.5 mph 19.6 mph N/A   Overcast
7:34 AM 39.2 °F 33.6 °F 24.8 °F 56% 29.79 in 10.0 mi SSW 8.1 mph 17.3 mph N/A   Overcast
7:54 AM 39.2 °F 33.6 °F 26.6 °F 61% 29.79 in 10.0 mi South 8.1 mph 16.1 mph N/A   Mostly Cloudy
8:14 AM 39.2 °F 33.6 °F 26.6 °F 61% 29.79 in 10.0 mi SSW 8.1 mph - N/A   Mostly Cloudy
8:33 AM 39.2 °F 32.5 °F 26.6 °F 61% 29.77 in 10.0 mi South 10.4 mph - N/A   Scattered Clouds
8:54 AM 39.2 °F 33.0 °F 26.6 °F 61% 29.77 in 10.0 mi South 9.2 mph - N/A   Mostly Cloudy
9:14 AM 39.2 °F 32.5 °F 26.6 °F 61% 29.79 in 10.0 mi SSW 10.4 mph - N/A   Overcast
9:33 AM 39.2 °F 33.6 °F 26.6 °F 61% 29.78 in 10.0 mi South 8.1 mph - N/A   Overcast
9:54 AM 39.2 °F 32.0 °F 28.4 °F 65% 29.77 in 10.0 mi SSE 11.5 mph - N/A   Mostly Cloudy
10:14 AM 41.0 °F 33.9 °F 28.4 °F 61% 29.76 in 10.0 mi South 12.7 mph 20.7 mph N/A   Clear
10:33 AM 41.0 °F 34.3 °F 28.4 °F 61% 29.75 in 10.0 mi South 11.5 mph - N/A   Clear
10:54 AM 42.8 °F 36.6 °F 28.4 °F 57% 29.76 in 10.0 mi South 11.5 mph 18.4 mph N/A   Scattered Clouds
11:14 AM 42.8 °F 37.5 °F 28.4 °F 57% 29.75 in 10.0 mi South 9.2 mph - N/A   Scattered Clouds
11:34 AM 44.6 °F 38.8 °F 28.4 °F 53% 29.76 in 10.0 mi SSW 11.5 mph - N/A   Scattered Clouds
11:54 AM 44.6 °F 38.8 °F 30.2 °F 57% 29.75 in 10.0 mi SSW 11.5 mph - N/A   Clear
12:14 PM 46.4 °F 41.9 °F 30.2 °F 53% 29.75 in 10.0 mi SW 9.2 mph - N/A   Clear
12:34 PM 46.4 °F 40.7 °F 30.2 °F 53% 29.75 in 10.0 mi WSW 12.7 mph - N/A   Clear
12:54 PM 48.2 °F - 32.0 °F 54% 29.75 in 10.0 mi WSW 12.7 mph - N/A   Clear
1:14 PM 48.2 °F - 33.8 °F 58% 29.76 in 10.0 mi West 16.1 mph 21.9 mph N/A   Mostly Cloudy
1:34 PM 46.4 °F 39.2 °F 33.8 °F 62% 29.76 in 10.0 mi West 18.4 mph 27.6 mph N/A   Overcast
1:54 PM 46.4 °F 38.3 °F 35.6 °F 66% 29.76 in 10.0 mi West 23.0 mph 29.9 mph N/A   Mostly Cloudy
2:14 PM 44.6 °F 37.2 °F 32.0 °F 61% 29.77 in 10.0 mi West 17.3 mph 31.1 mph N/A   Mostly Cloudy
2:34 PM 42.8 °F 33.8 °F 32.0 °F 66% 29.78 in 10.0 mi West 21.9 mph 28.8 mph N/A   Overcast
2:54 PM 42.8 °F 34.3 °F 30.2 °F 61% 29.79 in 10.0 mi West 19.6 mph 28.8 mph N/A   Overcast
3:13 PM 41.0 °F 31.4 °F 30.2 °F 65% 29.79 in 10.0 mi West 21.9 mph 27.6 mph N/A   Overcast
3:34 PM 41.0 °F 31.9 °F 30.2 °F 65% 29.80 in 10.0 mi West 19.6 mph 25.3 mph N/A   Overcast
3:54 PM 41.0 °F 32.8 °F 28.4 °F 61% 29.81 in 10.0 mi WNW 16.1 mph 27.6 mph N/A   Overcast
4:13 PM 41.0 °F 30.5 °F 28.4 °F 61% 29.82 in 10.0 mi WNW 26.5 mph 35.7 mph N/A   Overcast
4:34 PM 39.2 °F 28.7 °F 28.4 °F 65% 29.84 in 10.0 mi WNW 23.0 mph 32.2 mph N/A   Overcast
4:54 PM 39.2 °F 29.8 °F 28.4 °F 65% 29.86 in 10.0 mi WNW 18.4 mph 25.3 mph N/A   Overcast
5:14 PM 39.2 °F 29.8 °F 26.6 °F 61% 29.87 in 10.0 mi WNW 18.4 mph 28.8 mph N/A   Overcast
5:34 PM 39.2 °F 29.3 °F 26.6 °F 61% 29.88 in 10.0 mi WNW 20.7 mph 26.5 mph N/A   Overcast
5:54 PM 37.4 °F 27.2 °F 26.6 °F 65% 29.89 in 10.0 mi WNW 19.6 mph 28.8 mph N/A   Overcast
6:14 PM 37.4 °F 28.9 °F 26.6 °F 65% 29.91 in 10.0 mi WNW 13.8 mph 23.0 mph N/A   Overcast
6:34 PM 37.4 °F 26.1 °F 24.8 °F 60% 29.92 in 10.0 mi NW 24.2 mph 32.2 mph N/A   Overcast
6:54 PM 37.4 °F 27.8 °F 24.8 °F 60% 29.94 in 10.0 mi WNW 17.3 mph 27.6 mph N/A   Overcast
7:14 PM 35.6 °F 24.8 °F 24.8 °F 65% 29.95 in 10.0 mi WNW 19.6 mph 25.3 mph N/A   Overcast
7:34 PM 35.6 °F 25.9 °F 24.8 °F 65% 29.97 in 10.0 mi WNW 16.1 mph 25.3 mph N/A   Overcast
7:54 PM 35.6 °F 25.9 °F 24.8 °F 65% 29.98 in 10.0 mi WNW 16.1 mph 24.2 mph N/A   Overcast
8:14 PM 33.8 °F 23.2 °F 23.0 °F 65% 30.00 in 10.0 mi WNW 17.3 mph 25.3 mph N/A   Overcast
8:34 PM 33.8 °F 23.5 °F 23.0 °F 65% 30.02 in 10.0 mi WNW 16.1 mph 25.3 mph N/A   Overcast
8:54 PM 33.8 °F 22.8 °F 23.0 °F 65% 30.03 in 10.0 mi WNW 18.4 mph 24.2 mph N/A   Overcast
9:14 PM 33.8 °F 24.8 °F 23.0 °F 65% 30.04 in 10.0 mi WNW 12.7 mph 17.3 mph N/A   Overcast
9:34 PM 33.8 °F 23.5 °F 21.2 °F 60% 30.06 in 10.0 mi WNW 16.1 mph 23.0 mph N/A   Overcast
9:54 PM 32.0 °F 20.8 °F 21.2 °F 64% 30.07 in 10.0 mi WNW 17.3 mph 23.0 mph N/A   Overcast
10:14 PM 30.2 °F 18.5 °F 21.2 °F 69% 30.08 in 10.0 mi WNW 17.3 mph 26.5 mph N/A   Overcast
10:34 PM 30.2 °F 18.9 °F 19.4 °F 64% 30.09 in 10.0 mi WNW 16.1 mph 24.2 mph N/A   Overcast
10:54 PM 30.2 °F 20.2 °F 19.4 °F 64% 30.11 in 10.0 mi WNW 12.7 mph 24.2 mph N/A   Overcast
11:14 PM 28.4 °F 18.0 °F 17.6 °F 64% 30.12 in 10.0 mi WNW 12.7 mph 25.3 mph N/A   Overcast
11:34 PM 28.4 °F 16.6 °F 15.8 °F 59% 30.13 in 10.0 mi WNW 16.1 mph 19.6 mph N/A   Overcast
11:54 PM 28.4 °F 16.2 °F 15.8 °F 59% 30.13 in 10.0 mi WNW 17.3 mph 25.3 mph N/A   Overcast